| time (UTC) | temp F | wind direction | speed knots | gust knots | rain 1hr in | rain 24hr in | rain mn in | humidity % | barometer mb |
| 20260502215804 | 72 | 67 | 6.1 | 11.3 | 0.00 | 0.00 | 0.00 | 8 | 1016.9 |
| 20260502215305 | 72 | 97 | 7.8 | 13.9 | 0.00 | 0.00 | 0.00 | 10 | 1016.9 |
| 20260502214805 | 71 | 67 | 3.5 | 6.1 | 0.00 | 0.00 | 0.00 | 9 | 1016.9 |
| 20260502214304 | 72 | 18 | 2.6 | 10.4 | 0.00 | 0.00 | 0.00 | 8 | 1016.9 |
| 20260502213804 | 73 | 90 | 5.2 | 10.4 | 0.00 | 0.00 | 0.00 | 10 | 1016.9 |
| 20260502211304 | 71 | 222 | 4.3 | 7.8 | 0.00 | 0.00 | 0.00 | 10 | 1016.9 |
| 20260502205804 | 72 | 85 | 5.2 | 11.3 | 0.00 | 0.00 | 0.00 | 11 | 1016.9 |
| 20260502204804 | 72 | 107 | 5.2 | 7.8 | 0.00 | 0.00 | 0.00 | 12 | 1016.9 |
| 20260502203804 | 72 | 146 | 4.3 | 7.8 | 0.00 | 0.00 | 0.00 | 11 | 1016.9 |
| 20260502202804 | 69 | 45 | 4.3 | 7.0 | 0.00 | 0.00 | 0.00 | 12 | 1016.9 |
| 20260502194804 | 71 | 72 | 4.3 | 11.3 | 0.00 | 0.00 | 0.00 | 14 | 1016.9 |
| 20260502193804 | 69 | 44 | 4.3 | 11.3 | 0.00 | 0.00 | 0.00 | 13 | 1016.9 |
| 20260502192804 | 68 | 41 | 2.6 | 8.7 | 0.00 | 0.00 | 0.00 | 16 | 1016.9 |
| 20260502191804 | 69 | 49 | 4.3 | 7.8 | 0.00 | 0.00 | 0.00 | 14 | 1016.9 |
| 20260502190304 | 67 | 34 | 3.5 | 8.7 | 0.00 | 0.00 | 0.00 | 17 | 1016.9 |
| 20260502185804 | 67 | 68 | 5.2 | 8.7 | 0.00 | 0.00 | 0.00 | 17 | 1016.9 |
| 20260502185305 | 66 | 35 | 5.2 | 7.8 | 0.00 | 0.00 | 0.00 | 17 | 1016.9 |
| 20260502184804 | 66 | 287 | 1.7 | 4.3 | 0.00 | 0.00 | 0.00 | 17 | 1016.9 |
| 20260502184304 | 66 | 106 | 4.3 | 7.0 | 0.00 | 0.00 | 0.00 | 18 | 1016.9 |
| 20260502183804 | 65 | 65 | 3.5 | 8.7 | 0.00 | 0.00 | 0.00 | 18 | 1016.9 |
| 20260502182305 | 66 | 56 | 5.2 | 8.7 | 0.00 | 0.00 | 0.00 | 20 | 1016.9 |
| 20260502180804 | 65 | 61 | 4.3 | 7.0 | 0.00 | 0.00 | 0.00 | 18 | 1016.9 |
| 20260502180304 | 65 | 117 | 1.7 | 7.0 | 0.00 | 0.00 | 0.00 | 18 | 1016.9 |
| 20260502170304 | 64 | 8 | 5.2 | 8.7 | 0.00 | 0.00 | 0.00 | 21 | 1016.9 |
| 20260502163804 | 64 | 79 | 2.6 | 6.1 | 0.00 | 0.00 | 0.00 | 22 | 1016.9 |
| 20260502161304 | 61 | 229 | 2.6 | 4.3 | 0.00 | 0.00 | 0.00 | 22 | 1016.9 |
| 20260502150805 | 55 | 255 | 2.6 | 4.3 | 0.00 | 0.00 | 0.00 | 31 | 1016.9 |
| 20260502123304 | 35 | 24 | 0.9 | 1.7 | 0.00 | 0.00 | 0.00 | 67 | 1015.2 |
| 20260502120304 | 34 | 24 | 0.0 | 0.9 | 0.00 | 0.00 | 0.00 | 67 | 1015.2 |
| 20260502111804 | 35 | 24 | 1.7 | 1.7 | 0.00 | 0.00 | 0.00 | 63 | 1015.2 |
| 20260502111304 | 35 | 24 | 0.9 | 1.7 | 0.00 | 0.00 | 0.00 | 63 | 1015.2 |
| 20260502105306 | 35 | 24 | 0.9 | 1.7 | 0.00 | 0.00 | 0.00 | 63 | 1015.2 |
| 20260502104804 | 35 | 24 | 1.7 | 2.6 | 0.00 | 0.00 | 0.00 | 62 | 1015.2 |
| 20260502103304 | 36 | 24 | 1.7 | 1.7 | 0.00 | 0.00 | 0.00 | 60 | 1015.2 |
| 20260502102804 | 36 | 24 | 0.0 | 0.0 | 0.00 | 0.00 | 0.00 | 59 | 1015.2 |
| 20260502100804 | 37 | 24 | 0.9 | 1.7 | 0.00 | 0.00 | 0.00 | 58 | 1015.2 |
| 20260502070304 | 44 | 37 | 0.9 | 1.7 | 0.00 | 0.00 | 0.00 | 43 | 1015.2 |
| 20260502065804 | 44 | 37 | 0.9 | 1.7 | 0.00 | 0.00 | 0.00 | 43 | 1015.2 |
| 20260502065306 | 44 | 37 | 0.9 | 1.7 | 0.00 | 0.00 | 0.00 | 43 | 1015.2 |
| 20260502063304 | 45 | 37 | 0.0 | 0.9 | 0.00 | 0.00 | 0.00 | 41 | 1015.2 |
| 20260502062804 | 46 | 37 | 0.0 | 0.0 | 0.00 | 0.00 | 0.00 | 39 | 1015.2 |
| 20260502060816 | 47 | 37 | 0.0 | 0.9 | 0.00 | 0.00 | 0.00 | 39 | 1015.2 |
| 20260502055804 | 47 | 37 | 0.0 | 0.9 | 0.00 | 0.00 | 0.00 | 38 | 1015.2 |
| 20260502053804 | 47 | 37 | 0.9 | 1.7 | 0.00 | 0.00 | 0.00 | 37 | 1015.2 |
| 20260502052306 | 47 | 37 | 0.9 | 1.7 | 0.00 | 0.00 | 0.00 | 37 | 1015.2 |
| 20260502051304 | 47 | 37 | 0.0 | 0.0 | 0.00 | 0.00 | 0.00 | 36 | 1015.2 |
| 20260502050804 | 48 | 37 | 0.0 | 0.0 | 0.00 | 0.00 | 0.00 | 36 | 1015.2 |
| 20260502045804 | 48 | 37 | 0.0 | 0.0 | 0.00 | 0.00 | 0.00 | 35 | 1015.2 |
| 20260502044304 | 48 | 37 | 0.0 | 0.0 | 0.00 | 0.00 | 0.00 | 34 | 1015.2 |
| 20260502043804 | 48 | 37 | 0.0 | 0.0 | 0.00 | 0.00 | 0.00 | 34 | 1015.2 |
| 20260502042306 | 48 | 37 | 0.0 | 0.0 | 0.00 | 0.00 | 0.00 | 30 | 1015.2 |
| 20260502041804 | 49 | 37 | 0.0 | 0.0 | 0.00 | 0.00 | 0.00 | 30 | 1015.2 |
| 20260502040804 | 49 | 37 | 0.0 | 0.0 | 0.00 | 0.00 | 0.00 | 30 | 1015.2 |
| 20260502035803 | 50 | 37 | 0.0 | 0.9 | 0.00 | 0.00 | 0.00 | 30 | 1015.2 |
| 20260502034804 | 50 | 37 | 0.0 | 0.9 | 0.00 | 0.00 | 0.00 | 29 | 1015.2 |
| 20260502033804 | 52 | 37 | 0.9 | 2.6 | 0.00 | 0.00 | 0.00 | 27 | 1015.2 |
| 20260502033303 | 52 | 37 | 1.7 | 2.6 | 0.00 | 0.00 | 0.00 | 27 | 1015.2 |
| 20260502031803 | 51 | 38 | 2.6 | 4.3 | 0.00 | 0.00 | 0.00 | 28 | 1015.2 |
| 20260502030303 | 52 | 44 | 0.9 | 2.6 | 0.00 | 0.00 | 0.00 | 26 | 1015.2 |
| 20260502025804 | 53 | 44 | 0.9 | 2.6 | 0.00 | 0.00 | 0.00 | 25 | 1015.2 |
| 20260502025306 | 53 | 34 | 1.7 | 4.3 | 0.00 | 0.00 | 0.00 | 26 | 1015.2 |
| 20260502024303 | 52 | 42 | 0.9 | 1.7 | 0.00 | 0.00 | 0.00 | 27 | 1015.2 |
| 20260502023804 | 53 | 42 | 0.9 | 1.7 | 0.00 | 0.00 | 0.00 | 27 | 1015.2 |
| 20260502023304 | 53 | 42 | 0.9 | 1.7 | 0.00 | 0.00 | 0.00 | 26 | 1015.2 |
| 20260502022803 | 54 | 44 | 0.9 | 2.6 | 0.00 | 0.00 | 0.00 | 25 | 1015.2 |
| 20260502022306 | 54 | 48 | 1.7 | 2.6 | 0.00 | 0.00 | 0.00 | 25 | 1015.2 |
| 20260502021305 | 56 | 34 | 0.9 | 2.6 | 0.00 | 0.00 | 0.00 | 23 | 1015.2 |
| 20260502020803 | 56 | 38 | 1.7 | 4.3 | 0.00 | 0.00 | 0.00 | 23 | 1015.2 |
| 20260502015804 | 57 | 34 | 1.7 | 2.6 | 0.00 | 0.00 | 0.00 | 23 | 1015.2 |
| 20260502015305 | 57 | 26 | 1.7 | 2.6 | 0.00 | 0.00 | 0.00 | 23 | 1015.2 |
| 20260502013303 | 59 | 20 | 4.3 | 7.0 | 0.00 | 0.00 | 0.00 | 21 | 1015.2 |
| 20260502011804 | 60 | 17 | 4.3 | 7.0 | 0.00 | 0.00 | 0.00 | 20 | 1015.2 |
| 20260502010804 | 60 | 352 | 4.3 | 7.8 | 0.00 | 0.00 | 0.00 | 20 | 1015.2 |
| 20260502010304 | 60 | 11 | 4.3 | 7.8 | 0.00 | 0.00 | 0.00 | 20 | 1015.2 |
| 20260502005804 | 60 | 344 | 4.3 | 7.8 | 0.00 | 0.00 | 0.00 | 20 | 1015.2 |
| 20260502005306 | 60 | 345 | 5.2 | 10.4 | 0.00 | 0.00 | 0.00 | 20 | 1015.2 |
| 20260502004804 | 60 | 43 | 4.3 | 10.4 | 0.00 | 0.00 | 0.00 | 19 | 1015.2 |
| 20260502004304 | 61 | 14 | 5.2 | 10.4 | 0.00 | 0.00 | 0.00 | 19 | 1015.2 |
| 20260502003803 | 61 | 29 | 4.3 | 13.9 | 0.00 | 0.00 | 0.00 | 19 | 1015.2 |
| 20260502002305 | 62 | 41 | 3.5 | 11.3 | 0.00 | 0.00 | 0.00 | 18 | 1015.2 |
| 20260502001303 | 63 | 20 | 2.6 | 4.3 | 0.00 | 0.00 | 0.00 | 17 | 1015.2 |
| 20260502000804 | 63 | 284 | 4.3 | 7.8 | 0.00 | 0.00 | 0.00 | 18 | 1015.2 |
| 20260501235804 | 62 | 349 | 6.1 | 12.2 | 0.00 | 0.00 | 0.00 | 17 | 1015.2 |
| 20260501234804 | 63 | 270 | 4.3 | 7.0 | 0.00 | 0.00 | 0.00 | 17 | 1015.2 |
| 20260501232804 | 63 | 6 | 4.3 | 10.4 | 0.00 | 0.00 | 0.00 | 16 | 1015.2 |
| 20260501232306 | 64 | 350 | 7.8 | 11.3 | 0.00 | 0.00 | 0.00 | 16 | 1015.2 |
| 20260501231304 | 63 | 320 | 6.1 | 11.3 | 0.00 | 0.00 | 0.00 | 16 | 1015.2 |
| 20260501230804 | 62 | 73 | 6.1 | 13.9 | 0.00 | 0.00 | 0.00 | 16 | 1015.2 |
| 20260501230304 | 63 | 349 | 6.1 | 10.4 | 0.00 | 0.00 | 0.00 | 16 | 1015.2 |
| 20260501224804 | 63 | 316 | 6.1 | 13.0 | 0.00 | 0.00 | 0.00 | 16 | 1015.2 |
| 20260501224304 | 63 | 16 | 7.8 | 13.0 | 0.00 | 0.00 | 0.00 | 16 | 1015.2 |
| 20260501223304 | 62 | 335 | 3.5 | 10.4 | 0.00 | 0.00 | 0.00 | 18 | 1015.2 |
| 20260501222804 | 62 | 24 | 2.6 | 8.7 | 0.00 | 0.00 | 0.00 | 18 | 1015.2 |
| 20260501221803 | 62 | 28 | 7.8 | 13.0 | 0.00 | 0.00 | 0.00 | 16 | 1015.2 |
| 20260501220804 | 62 | 55 | 5.2 | 11.3 | 0.00 | 0.00 | 0.00 | 17 | 1015.2 |